Showing default

TIROS 4, 226

Orbit data source: Space-Track

TIROS 4, 226 is a payload satellite owned by GSFC (US) in LEO that was launched on Thu, 08 Feb 1962 UTC via a THOR DELTA launch vehicle from the Air Force Eastern Test Range (AFETR). Payload-class satellites include a variety of spacecraft equipped with specific instruments for various scientific and technological missions. These include communications satellites like Starlink; space stations such as the ISS; scientific satellites like the Hubble; Earth observation satellites from companies like Planet Labs, Umbra, and HawkEye 360; GPS; miniature CubeSats for education and research; and military/defense satellites.

Loading next visibility...
Identifier
226, 1962-002A
Orbit
LEO
Country
Flag of USUS
Related business
Manufacturer
RCA/East Windsor
Mission
Non-operational spacecraft
Bus & Motor
TIROS, Unknown motor
Mass
129 kg wet, 129 kg dry
Launch date (UTC)
1962-02-08 (64 years ago)
Launch vehicle
THOR DELTA
Launch site
Air Force Eastern Test Range (AFETR)
Object type
Payload
Rocket body
Debris
Shape & HBR
Unknown
Radar Cross Section
Medium (>0.1 m² and <1 m²)

Expand to show TLE details & history
Last TLE update: 14 hours ago

TLE from 14 hours ago
0 TIROS 4
1   226U 62002A   25296.12762073  .00000223  00000-0  10476-3 0  9990
2   226  48.2976   3.7955 0076300 354.8889   5.1225 14.47027097334116
Epoch: 2025-10-23T03:03Z
TLE epoch observation values (Epoch: 2025-10-23T03:03:46.431Z)
Latitude
0.00005°
Longitude
-73.93925°
Altitude
681.676 km
Speed
7.546 km/s
True Right ascension
00h 15m 10s
True Declination
0° 00' 00"
Sunlit
Object was in full shadow at epoch
Visualization orbit readout
Latitude
Unknown
Longitude
Unknown
Altitude
Unknown
Speed
Unknown
Apparent Right ascension
Unknown
Apparent Declination
Unknown
Sunlit
N/A
Visualization observer readout
Local Sidereal Time
12:17:18
Azimuth
Unknown
Elevation
Unknown
Doppler factor
Unknown
Orbital elements
Apogee altitude
790.678 km
Perigee altitude
682.11 km
Semi-major axis
7,114.531 km
Eccentricity
0.00763
Inclination
48.2976°
RAAN
3.7955°
Arg. of periapsis
354.8889°
True anomaly
5.20131°
Mean anomaly
5.1225°
Eccentric anomaly
5.16183°
Mean motion
3.61679 °/min
Orbital period
99.54 mins
BSTAR
0.00010476
Loading maneuver chart data...
Computing Atmospheric mass density...
Loading historical data...
Loading historical data...
Loading historical data...
Loading historical data...
Loading historical data...
Loading historical data...
Loading historical data...
Other satellites on launch #2 in the year 1962 (1962-02-08 UTC)

Documentation

Showing up to 5 results
|